Terminal Aerodrome Forecast
Issued by NWS Sterling, VA

Current Version | Previous Version | Graphics & Text | Print | Product List | Glossary On
Versions: 1 2 3 4 5 6 7 8 9 10 11 12 13 14 15 16 17 18 19 20 21 22 23 24
053
FTUS41 KLWX 220521
TAFIAD
TAF
KIAD 220521Z 2206/2312 20005KT P6SM BKN060 BKN130
     FM221100 29007KT P6SM SCT060 SCT130
     FM221300 32015G27KT P6SM FEW060
     FM230000 33010KT P6SM SKC
     FM230300 33005KT P6SM SKC=

USA.gov is the U.S. government's official web portal to all federal, state and local government web resources and services.